Location: *
(49.3500°N, 12.6000°E)
Time: 03:34:30
(UTC+00:00)

Resurs 01 Rocket - Pass Details

Date: 18 October 2019
Orbit: 633 x 645 km, 98.0° (Epoch: 18 November)

Event Time Altitude Azimuth Distance (km) Brightness Sun altitude
Exits shadow 19:32:43 20° 346° (NNW) 1,518 3.9 -32.4°
Drops below altitude 10° 19:34:04 10° 346° (NNW) 2,054 4.6 -32.6°
Sets 19:36:17 0° 347° (NNW) 2,967 5.5 -33.0°
